Location: Babice
(50.3480°N, 22.9363°E)
Time: 01:42:57
(UTC+00:00)

SL-8 R/B - Pass Details

Date: 14 July 2020
Orbit: 656 x 668 km, 48.4° (Epoch: 06 August)

Event Time Altitude Azimuth Distance (km) Brightness Sun altitude
Exits shadow 00:08:40 25° 215° (SW) 1,346 4.7 -15.0°
Maximum altitude 00:11:04 44° 157° (SSE) 916 4.1 -14.9°
Drops below altitude 10° 00:15:38 10° 86° (E) 2,082 6.6 -14.6°
Sets 00:18:03 0° 80° (E) 2,994 7.6 -14.4°
